Simultaneous Nadir Overpasses (SNOs) Predictions

Prediction of SNOs between GOES-16 and LANDSAT-8 Satellite Orbit:

Table of predicted SNOs for the next 14.0 days since TLE Epoch: 5/29/2021
Index Date Time (GOES-16) GOES-16 Lat,Lon LANDSAT-8 Lat,Lon Distance(km) Time Diff (sec)
1 05/30/2021 15:00:09 -0.03, -75.22 -0.63, -72.47 312.44 80
2 05/31/2021 03:24:13 0.03, -75.20 -0.50, -77.66 279.44 80
3 06/02/2021 03:09:23 0.04, -75.22 0.15, -74.71 58.78 80
4 06/04/2021 02:57:13 0.04, -75.25 0.80, -71.75 398.06 80
5 06/04/2021 15:21:08 -0.04, -75.28 0.28, -76.91 185.29 80
6 06/06/2021 15:06:18 -0.04, -75.32 -0.31, -73.95 154.94 80
7 06/07/2021 03:30:22 0.04, -75.31 -0.75, -79.15 436.02 80
8 06/08/2021 14:54:08 -0.04, -75.36 -0.97, -71.00 495.48 80
9 06/09/2021 03:18:11 0.04, -75.35 -0.15, -76.19 95.39 80
10 06/11/2021 03:03:21 0.04, -75.39 0.51, -73.24 245.39 80
11 06/11/2021 15:27:17 -0.04, -75.42 0.58, -78.40 337.78 80
